TIANWANG 1A (TW-1A)
1 40928U 15051D   19246.44862159  .00003656  00000-0  90189-4 0  9997
2 40928  97.1403 276.0483 0011627 146.4446 321.2375 15.41102944220991
LAPAN A2
1 40931U 15052B   19245.40259071  .00000619  00000-0 -28585-5 0  9999
2 40931   5.9960 236.7152 0012298 146.0422 214.0504 14.76612064212474
LQSAT
1 40958U 15057A   19245.77668126 -.00000002 +00000-0 +72764-5 0  9992
2 40958 097.8931 312.8958 0018095 001.8608 358.2665 14.73087180210015
CHUBUSAT 2
1 41338U 16012B   19245.81052891  .00000334  00000-0  19241-4 0  9995
2 41338  31.0041  21.0183 0013603 137.4927 222.6763 15.00172350194355
CHUBUSAT 3
1 41339U 16012C   19246.43643476  .00000279  00000-0  14910-4 0  9996
2 41339  31.0117  15.0343 0013316 150.9224 209.2185 15.00346212194441
OUFTI-1
1 41458U 16025C   19246.46935753  .00002833  00000-0  14571-3 0  9997
2 41458  98.1010 337.2182 0167375  98.9380 263.0833 15.05977088184126
E-STAR-2
1 41459U 16025D   19246.50423633  .00002092  00000-0  10919-3 0  9991
2 41459  98.1041 336.8757 0169242 100.2509 261.7869 15.05608441184105
AAUSAT 4
1 41460U 16025E   19246.51581915  .00003456  00000-0  17419-3 0  9999
2 41460  98.0963 338.3209 0158464  92.2204 269.7224 15.07555061184243
NUSAT 1
1 41557U 16033B   19246.50426035  .00001341  00000-0  52749-4 0  9992
2 41557  97.4166 333.5583 0014571  32.8132 327.4008 15.27339470181818
BEESAT 4
1 41619U 16040W   19246.11426417  .00001497  00000-0  66029-4 0  9998
2 41619  97.3611 306.8933 0012943 112.1521 248.1091 15.23259866165491
PRATHAM
1 41783U 16059A   19246.13176434  .00000035  00000-0  15908-4 0  9990
2 41783  98.0608 303.9995 0034474 141.9921 218.3723 14.63006554156724
ALSAT 1N
1 41789U 16059G   19246.46520832  .00000063  00000-0  20940-4 0  9990
2 41789  98.0640 306.4875 0029431 130.1985 230.1802 14.64258449156888
NAYIF 1
1 42017U 17008BX  19245.71677720  .00001609  00000-0  66044-4 0  9998
2 42017  97.3975 312.0105 0004547 257.8100 102.2629 15.25671683141519
MAX VALIER SAT
1 42778U 17036P   19245.72442906 +.00000997 +00000-0 +46506-4 0  9990
2 42778 097.3480 301.6922 0011186 324.0202 036.0280 15.22107954121801
